CAPE
0 0 0 0 0 0 0 4 28 37 162 370 459 510 367 363 349 242 202 256 201 255 320 359 412 338 400 524 544 621 641 764 1108 1050 946 1004 856 428 418 424 455 498 471 386
0 0 0 2 0 0 3 19 1 19 29 175 501 526 453 469 447 280 277 291 265 317 349 348 511 594 559 638 644 715 699 1050 1294 1291 1160 1027 936 740 705 665 734 752 837 837
0 0 2 0 0 0 1 17 4 2 0 29 533 587 539 539 437 346 267 231 358 444 512 510 626 721 800 766 783 787 830 1134 1255 1336 1114 920 963 894 736 434 347 527 737 920
0 0 1 3 9 6 2 1 10 2 0 0 194 34 551 451 555 490 365 359 443 577 665 673 840 800 940 939 997 992 1011 1063 1200 1155 1038 1126 1130 668 268 613 599 622 788 547
0 0 10 3 24 32 16 5 0 0 0 0 0 0 179 425 412 528 497 476 505 663 919 975 1001 1023 990 1056 1327 1173 1304 1198 1246 1202 1223 1317 1278 915 823 903 918 774 666 352
0 0 0 0 0 1 0 0 0 0 0 0 1 1 44 254 415 493 576 432 651 652 901 930 1077 1065 1017 1177 1488 1548 1914 1678 1371 1653 2007 1722 1478 1371 1171 1310 938 852 839 618
0 0 0 0 0 0 0 0 0 0 0 0 28 151 164 182 253 515 636 494 311 247 371 573 835 913 964 1550 1689 1700 2083 2007 1818 1859 2060 2034 2035 1603 1571 1370 1032 1200 959 747
0 0 0 0 0 0 0 0 0 0 0 0 94 172 204 158 150 398 590 586 338 205 77 93 960 1001 918 1615 1986 2055 2093 2237 2354 2330 2375 2334 2189 2191 1734 1628 1638 1422 1185 953
0 0 0 0 0 1 0 0 0 0 0 0 59 87 126 168 124 323 489 442 273 200 237 184 190 385 1015 1436 1842 2162 2170 2192 2551 3005 2828 2698 2619 2464 2409 2294 2390 1737 1596 1434
0 0 0 1 0 5 0 0 0 0 0 6 163 68 55 165 166 210 145 324 265 275 255 272 160 439 815 1487 1749 2120 2230 2377 2842 2996 3198 3030 2810 2487 2387 2500 2467 2269 1859 1216
0 0 0 42 17 0 4 10 1 2 0 55 12 31 127 228 148 361 264 80 142 211 489 375 373 96 261 614 1496 2313 2366 2583 2849 2920 3114 2941 2426 2224 2044 1997 2021 2143 1464 1725
0 8 2 1 2 18 11 0 2 0 31 36 41 111 349 193 130 306 320 963 584 196 292 662 545 49 6 732 1052 2506 2637 2733 2669 2535 2574 2577 2412 2150 2003 1973 1800 1466 1549 1483
64 16 9 13 3 20 10 10 1 5 0 24 67 14 98 209 14 74 130 411 192 260 276 261 180 1082 1318 1265 1685 1252 181 275 1283 2285 2337 2046 1573 1294 1076 1079 1088 456 366 441
169 126 55 42 37 18 10 19 4 11 12 0 0 3 49 80 33 101 100 141 141 8 7 96 26 192 564 854 840 621 508 352 792 1283 1603 1365 1101 365 278 203 113 111 137 77
79 53 12 3 1 10 6 3 2 13 3 0 63 51 142 62 118 322 260 497 790 472 621 455 409 416 314 503 918 662 660 447 544 759 886 806 498 186 134 170 209 228 138 90
19 1 2 16 50 81 46 9 4 20 169 367 316 172 165 127 377 269 286 20 602 479 342 401 415 136 25 0 0 6 0 0 2 160 116 129 28 11 18 35 20 27 20 19
41 41 62 17 46 49 0 13 47 19 0 232 350 333 172 224 473 398 378 814 709 618 619 449 433 302 100 88 57 10 33 29 29 24 60 26 17 25 18 16 32 124 193 77
4 76 40 122 17 3 18 22 67 10 235 398 563 476 392 333 658 470 684 513 662 433 487 519 474 424 383 367 163 75 44 2 1 8 70 84 48 40 64 103 114 27 10 2
0 4 1 163 130 0 0 0 36 42 285 607 937 881 769 674 826 758 864 653 644 710 531 398 460 480 221 101 57 55 67 35 39 12 4 1 0 0 0 0 8 19 25 18
0 0 0 0 0 0 0 0 0 0 93 729 1072 1062 996 816 850 962 899 782 774 542 302 194 148 159 117 64 62 54 33 11 11 7 0 0 0 0 0 2 3 0 0 0
0 11 3 0 0 0 16 29 0 0 98 409 947 936 861 454 341 819 626 524 466 348 207 256 280 190 208 199 34 14 22 15 2 0 0 0 0 0 0 0 0 0 6 4
0 11 7 0 0 0 11 5 90 198 297 385 441 466 341 246 355 487 400 362 327 302 222 173 114 87 45 36 16 5 0 0 0 0 0 0 0 0 0 0 0 0 0 0
0 1 0 0 51 30 73 114 166 231 259 257 261 249 238 272 306 323 298 247 191 100 86 18 3 0 0 0 0 0 0 0 0 0 0 0 0 0 0 0 0 0 0 0
1 0 140 15 44 26 87 106 127 148 144 121 147 166 176 182 157 126 79 22 0 0 0 0 0 0 0 0 0 0 0 0 0 0 0 0 0 0 0 0 0 0 0 0
0 0 0 20 0 33 73 92 92 106 132 129 109 64 0 0 0 0 0 0 0 0 0 0 0 0 0 0 0 0 0 0 0 0 0 0 0 0 0 0 0 0 0 0
0 0 0 13 5 20 18 29 51 75 48 13 20 0 0 0 0 0 0 0 0 0 0 0 0 0 0 0 0 0 0 0 0 0 0 0 0 0 0 0 0 0 0 0
CIN
0 0 0 0 0 0 0 -21 -9 -13 -154 -82 -85 -76 -55 -64 -83 -89 -78 -83 -106 -119 -70 -77 -12 -95 -43 -20 -28 -25 -139 -111 -114 -76 -57 -55 -62 -84 -34 -53 -58 -67 -59 -43
0 0 0 -26 -5 0 -7 -2 -5 -17 -95 -72 -78 -68 -72 -57 -100 -110 -106 -92 -119 -205 -122 -50 -23 -171 -60 -34 -13 -39 -152 -96 -130 -84 -65 -67 -70 -57 -29 -83 -61 -33 -33 -26
0 0 -13 0 0 0 -6 -3 -2 -21 0 -37 -88 -60 -42 -54 -55 -103 -68 -114 -131 -164 -181 -95 -28 -153 -169 -95 -54 -61 -43 -124 -116 -94 -68 -70 -51 -21 -53 -78 -63 -29 -112 -42
0 0 -54 -17 -32 -26 -21 -1 -1 -13 0 0 -46 -25 -65 -47 -56 -52 -62 -43 -121 -102 -173 -127 -50 -56 -176 -47 -187 -20 -27 -147 -92 -73 -56 -39 -35 -74 -70 -44 -37 -33 -56 -87
0 -2 -15 -16 -26 -11 -17 -11 0 0 0 0 0 0 -88 -52 -88 -60 -51 -29 -66 -120 -134 -154 -105 -85 -162 -113 -173 -47 -182 -45 -28 -111 -29 -37 -53 -63 -48 -122 -31 -84 -144 -118
0 0 0 0 -5 -16 -6 0 0 0 0 0 -2 -2 -62 -74 -126 -57 -35 -36 -64 -77 -99 -94 -84 -73 -102 -132 -153 -175 -152 -80 -65 -90 -46 -29 -39 -42 -69 -28 -55 -67 -101 -88
0 0 0 0 0 0 0 0 0 0 0 0 -79 -46 -100 -107 -50 -89 -55 -53 -41 -58 -55 -43 -66 -76 -86 -135 -148 -155 -150 -141 -108 -84 -69 -40 -22 -28 -38 -30 -32 -46 -114 -128
0 0 0 0 0 0 0 0 0 0 0 0 -84 -90 -85 -109 -64 -181 -38 -36 -41 -123 -125 -336 -466 -38 -70 -147 -128 -167 -173 -144 -103 -76 -70 -39 -26 -19 -45 -40 -32 -33 -74 -89
0 0 0 0 -1 -1 0 0 0 0 0 0 -182 -133 -117 -93 -253 -208 -77 -40 -36 -33 -53 -602 -545 -85 -44 -168 -125 -197 -199 -163 -97 -62 -28 -41 -22 -30 -47 -33 -10 -17 -40 -58
0 0 0 -7 0 -36 0 0 0 0 0 -17 -97 -106 -31 -41 -8 -267 -153 -95 -95 -227 -34 -70 -66 -48 -49 -100 -120 -151 -192 -181 -127 -67 -25 -24 -22 -24 -12 -14 -3 -6 -11 -58
0 0 0 -23 -37 0 -37 -41 -4 -15 0 -41 -41 -49 -54 -271 -425 -322 -295 -225 -404 -176 -394 -59 -59 -317 -47 -119 -63 -129 -152 -117 -73 -38 -23 -17 -24 -19 -14 -16 -11 -7 -8 -5
0 -54 -7 -5 -50 -67 -21 0 -25 0 -34 -16 -114 -41 -108 -175 -474 -577 -344 -208 -224 -320 -305 -254 -177 -433 -11 -217 -93 -134 -63 -69 -36 -15 -29 -16 -22 -9 -12 -10 -13 -15 -13 -10
-30 -32 -20 -31 -15 -86 -27 -16 -6 -19 0 -22 -30 -45 -49 -85 -128 -465 -585 -303 -207 -90 -44 -124 -91 -30 -11 -33 -77 -42 -115 -20 -23 -15 -23 -11 -20 -14 -21 -19 -9 -57 -96 -107
-233 -35 -17 -16 -8 -22 -25 -16 -25 -5 -39 0 0 -79 -72 -73 -369 -108 -151 -299 -123 -105 -275 -264 -4 -584 -34 -32 -32 -132 -100 -44 -33 -29 -25 -25 -12 -38 -154 -165 -200 -168 -133 -170
-33 -32 -50 -2 -20 -171 -115 -29 -71 -14 -8 0 -72 -188 -85 -104 -114 -70 -174 -240 -157 -244 -85 -16 -8 -12 -35 -88 -93 -87 -78 -66 -74 -54 -41 -28 -39 -87 -183 -142 -130 -127 -151 -186
-54 -26 -53 -43 -66 -53 -130 -207 -46 -13 -45 -65 -82 -136 -134 -101 -107 -83 -43 -238 -96 -109 -120 -4 -18 -56 -324 -7 0 -152 -5 0 -124 -94 -93 -75 -135 -277 -273 -245 -220 -193 -165 -116
-83 -61 -57 -44 -64 -48 0 -77 -89 -56 0 -96 -103 -134 -108 -60 -65 -45 -48 -76 -196 -170 -141 -76 -100 -92 -228 -341 -361 -429 -341 -116 -32 -43 -47 -30 -207 -217 -222 -218 -195 -151 -69 -120
-18 -47 -32 -44 -60 -25 -48 -95 -64 -78 -113 -108 -91 -122 -77 -61 -109 -57 -61 -50 -161 -111 -203 -164 -109 -100 -156 -167 -199 -140 -129 -18 -34 -185 -188 -169 -124 -56 -116 -83 -37 -30 -9 -2
0 -55 -4 -47 -50 0 0 0 -97 -117 -80 -147 -238 -85 -72 -71 -215 -133 -112 -74 -70 -129 -87 -105 -80 -62 -93 -168 -218 -238 -191 -288 -275 -205 -31 -51 0 0 0 0 -38 -39 -33 -37
0 0 0 0 0 0 0 0 0 0 -58 -101 -89 -146 -122 -124 -118 -110 -133 -115 -150 -128 -139 -62 -57 -72 -60 -66 -75 -72 -103 -73 -12 -6 0 0 0 0 0 -28 -19 0 0 -1
-26 -116 -79 0 0 0 -187 -225 0 0 -107 -50 -75 -81 -84 -57 -85 -93 -99 -95 -63 -71 -78 -50 -31 -25 -12 -8 -10 -11 -4 -3 -2 0 0 0 0 0 0 0 0 0 -1 0
0 -25 -31 0 0 0 -186 -92 -108 -148 -125 -112 -79 -84 -71 -97 -92 -82 -65 -31 -22 -16 -17 -11 -11 -3 -5 -4 -2 -1 0 0 0 0 0 0 0 0 0 0 0 0 0 0
0 -27 -10 0 -113 -127 -122 -127 -125 -117 -89 -73 -68 -60 -43 -41 -37 -31 -14 -5 -6 -32 -11 -5 -1 0 0 0 0 0 0 0 0 0 0 0 0 0 0 0 0 0 0 0
-2 0 -96 -94 -110 -148 -151 -103 -83 -55 -40 -78 -46 -23 -19 -25 -13 -13 -24 -8 0 0 0 0 0 0 0 0 0 0 0 0 0 0 0 0 0 0 0 0 0 0 0 0
0 0 0 -100 0 -206 -197 -142 -105 -73 -42 -19 -25 -55 0 0 0 0 0 0 0 0 0 0 0 0 0 0 0 0 0 0 0 0 0 0 0 0 0 0 0 0 0 0
0 0 0 -133 -214 -176 -214 -187 -143 -99 -79 -55 -72 0 0 0 0 0 0 0 0 0 0 0 0 0 0 0 0 0 0 0 0 0 0 0 0 0 0 0 0 0 0 0
Wind_Speed
nan nan nan nan nan nan nan nan nan nan 21 22 27 20 23 28 29 26 19 17 16 24 13 14 15 16 14 11 12 13 9 9 10 9 9 10 12 10 10 5 4 6 5 2
nan nan nan nan nan nan nan nan nan nan nan 22 23 26 27 32 38 37 31 25 24 16 19 11 17 16 16 17 13 10 10 11 13 11 10 8 12 9 7 5 5 5 5 5
nan nan nan nan nan nan nan nan nan nan nan nan 24 10 24 26 17 23 35 31 24 19 28 19 12 17 16 18 20 17 14 13 12 13 6 3 6 7 7 5 2 7 4 8
nan nan nan nan nan nan nan nan nan nan nan nan 15 nan 12 28 16 26 30 21 23 19 30 27 9 12 15 16 16 16 18 16 15 14 10 10 10 10 11 6 6 11 14 19
nan nan nan nan nan nan nan nan nan nan nan nan nan nan 9 33 31 30 27 21 17 17 18 21 14 14 12 11 15 14 14 17 17 14 13 12 11 11 7 8 13 10 15 21
nan nan nan nan nan nan nan nan nan nan nan nan nan nan nan 24 36 29 31 22 14 13 17 19 20 15 6 11 15 14 16 16 17 16 14 13 13 10 7 9 13 12 17 18
nan nan nan nan nan nan nan nan nan nan nan nan nan 17 18 25 25 41 39 37 33 31 26 21 20 9 10 14 19 16 14 12 11 10 8 10 11 10 12 12 12 16 18 17
nan nan nan nan nan nan nan nan nan nan nan nan nan 19 20 34 27 21 34 46 38 42 nan nan 21 17 6 6 15 20 18 14 12 12 13 10 11 10 10 13 12 13 16 16
nan nan nan nan nan nan nan nan nan nan nan nan nan nan 11 25 17 22 29 35 38 24 30 21 18 20 8 6 13 18 19 18 16 16 14 15 16 14 16 16 15 12 13 13
nan nan nan nan nan nan nan nan nan nan nan nan 16 nan nan 16 28 30 42 35 33 32 39 25 14 23 27 10 11 10 15 19 18 12 13 14 13 15 15 18 22 21 17 15
nan nan nan nan nan nan nan nan nan nan nan nan nan nan 22 16 14 42 34 nan 34 41 33 33 18 nan 17 10 1 18 14 17 14 13 11 15 19 20 19 21 23 24 23 23
nan nan nan nan nan nan nan nan nan nan nan nan nan 15 33 24 25 24 34 35 41 38 31 39 33 nan nan 12 4 24 17 17 16 12 14 19 27 25 27 25 27 26 26 26
nan nan nan nan nan nan nan nan nan nan nan nan nan nan nan 25 nan nan 32 41 31 43 43 38 52 35 22 33 27 28 34 32 40 13 21 32 33 31 33 32 32 33 33 31
28 25 nan nan nan nan nan nan nan nan nan nan nan nan nan nan nan 35 35 34 39 nan nan nan nan 31 16 27 24 39 41 29 26 29 31 35 36 37 38 38 40 38 35 nan
nan nan nan nan nan nan nan nan nan nan nan nan nan nan 36 nan 46 44 40 24 31 29 21 22 21 16 25 32 32 35 36 35 35 37 39 39 39 41 42 43 44 44 41 nan
nan nan nan nan nan nan nan nan nan nan 38 33 39 32 36 33 33 33 28 nan 20 21 28 22 15 22 nan nan nan nan nan nan nan 44 43 43 nan nan nan nan nan nan nan nan
nan nan nan nan nan nan nan nan nan nan nan 42 40 38 44 32 33 32 29 26 22 20 18 5 11 18 23 nan nan nan nan nan nan nan nan nan nan nan nan nan nan 47 48 nan
nan nan nan 19 nan nan nan nan nan nan 37 37 41 42 38 36 27 29 25 24 20 14 13 21 15 17 25 28 31 nan nan nan nan nan nan nan nan nan nan 48 49 nan nan nan
nan nan nan 20 17 nan nan nan nan nan 23 21 33 30 27 31 26 21 24 23 23 22 21 21 32 36 36 37 nan nan nan nan nan nan nan nan nan nan nan nan nan nan nan nan
nan nan nan nan nan nan nan nan nan nan nan 28 44 38 44 37 29 22 27 27 26 31 35 37 39 40 41 nan nan nan nan nan nan nan nan nan nan nan nan nan nan nan nan nan
nan nan nan nan nan nan nan nan nan nan nan 28 34 35 30 32 35 37 43 43 44 41 41 41 40 38 36 32 nan nan nan nan nan nan nan nan nan nan nan nan nan nan nan nan
nan nan nan nan nan nan nan nan nan 27 26 34 37 39 45 45 46 48 49 47 45 45 42 39 40 nan nan nan nan nan nan nan nan nan nan nan nan nan nan nan nan nan nan nan
nan nan nan nan nan nan nan 31 32 36 40 32 40 41 47 49 48 48 47 46 44 42 nan nan nan nan nan nan nan nan nan nan nan nan nan nan nan nan nan nan nan nan nan nan
nan nan 34 nan nan nan nan 31 33 34 37 36 41 45 48 47 45 45 nan nan nan nan nan nan nan nan nan nan nan nan nan nan nan nan nan nan nan nan nan nan nan nan nan nan
nan nan nan nan nan nan nan nan nan 35 39 41 42 nan nan nan nan nan nan nan nan nan nan nan nan nan nan nan nan nan nan nan nan nan nan nan nan nan nan nan nan nan nan nan
nan nan nan nan nan nan nan nan nan nan nan nan nan nan nan nan nan nan nan nan nan nan nan nan nan nan nan nan nan nan nan nan nan nan nan nan nan nan nan nan nan nan nan nan
Wind_Direction
nan nan nan nan nan nan nan nan nan nan 2 339 358 351 356 14 18 15 12 28 14 359 17 40 29 17 11 26 21 20 10 3 6 24 34 28 23 10 25 26 9 6 32 343
nan nan nan nan nan nan nan nan nan nan nan 337 349 356 5 19 23 22 18 10 355 351 335 21 39 24 5 15 19 9 26 22 34 33 41 43 24 28 57 39 34 334 331 351
nan nan nan nan nan nan nan nan nan nan nan nan 303 2 359 14 20 27 6 5 0 356 351 343 45 44 30 44 38 33 35 33 44 35 42 54 51 59 74 66 351 309 323 293
nan nan nan nan nan nan nan nan nan nan nan nan 301 nan 358 327 359 12 355 356 350 342 341 322 6 55 44 34 17 28 39 43 51 47 45 34 42 41 43 21 317 302 311 325
nan nan nan nan nan nan nan nan nan nan nan nan nan nan 344 301 318 343 323 320 348 334 335 313 317 33 39 24 25 28 34 56 56 54 50 47 29 20 9 335 322 316 342 358
nan nan nan nan nan nan nan nan nan nan nan nan nan nan nan 314 331 325 282 279 279 261 249 233 231 203 75 45 6 25 15 34 46 32 36 27 37 36 3 10 7 354 6 24
nan nan nan nan nan nan nan nan nan nan nan nan nan 277 314 310 315 333 337 317 312 288 268 215 229 236 161 20 13 11 10 15 23 13 18 24 22 16 11 357 359 346 352 5
nan nan nan nan nan nan nan nan nan nan nan nan nan 312 313 307 320 315 322 319 311 300 nan nan 220 218 225 43 38 0 3 343 355 1 356 358 27 16 359 343 337 340 337 346
nan nan nan nan nan nan nan nan nan nan nan nan nan nan 276 306 336 310 276 255 246 255 292 270 282 192 202 355 8 5 352 350 347 351 342 338 352 348 352 353 332 319 321 332
nan nan nan nan nan nan nan nan nan nan nan nan 277 nan nan 284 295 270 302 272 292 301 276 230 170 172 194 173 340 2 335 341 338 326 324 330 330 336 328 328 318 321 317 319
nan nan nan nan nan nan nan nan nan nan nan nan nan nan 292 263 246 292 295 nan 306 316 291 279 230 nan 162 140 141 313 310 310 292 279 323 315 309 309 306 303 306 311 311 311
nan nan nan nan nan nan nan nan nan nan nan nan nan 270 277 287 283 281 289 320 301 303 300 258 241 nan nan 174 298 273 268 250 269 293 285 291 293 288 290 288 291 295 290 288
nan nan nan nan nan nan nan nan nan nan nan nan nan nan nan 278 nan nan 298 331 306 312 289 274 229 196 225 235 220 263 247 174 215 257 291 294 294 289 289 289 282 282 284 283
255 254 nan nan nan nan nan nan nan nan nan nan nan nan nan nan nan 300 303 323 310 nan nan nan nan 204 243 299 297 290 300 321 310 290 284 285 288 289 292 295 295 291 284 nan
nan nan nan nan nan nan nan nan nan nan nan nan nan nan 291 nan 296 304 302 288 274 278 315 346 18 357 305 298 288 289 296 293 288 284 286 289 295 299 299 296 295 294 291 nan
nan nan nan nan nan nan nan nan nan nan 257 256 273 275 296 287 293 301 297 nan 289 282 289 308 323 293 nan nan nan nan nan nan nan 294 296 297 nan nan nan nan nan nan nan nan
nan nan nan nan nan nan nan nan nan nan nan 267 273 274 288 299 315 316 307 311 320 330 319 330 310 294 280 nan nan nan nan nan nan nan nan nan nan nan nan nan nan 291 291 nan
nan nan nan 236 nan nan nan nan nan nan 245 267 262 279 308 318 306 301 308 319 304 313 265 262 300 276 273 270 272 nan nan nan nan nan nan nan nan nan nan 289 289 nan nan nan
nan nan nan 262 262 nan nan nan nan nan 275 284 287 292 312 310 287 287 313 313 307 307 304 291 276 275 272 268 nan nan nan nan nan nan nan nan nan nan nan nan nan nan nan nan
nan nan nan nan nan nan nan nan nan nan nan 287 301 304 302 305 297 305 312 308 303 293 289 289 284 280 276 nan nan nan nan nan nan nan nan nan nan nan nan nan nan nan nan nan
nan nan nan nan nan nan nan nan nan nan nan 277 295 302 303 300 300 300 294 290 293 296 296 296 291 289 288 284 nan nan nan nan nan nan nan nan nan nan nan nan nan nan nan nan
nan nan nan nan nan nan nan nan nan 302 275 284 283 293 290 290 292 295 298 300 298 299 298 296 293 nan nan nan nan nan nan nan nan nan nan nan nan nan nan nan nan nan nan nan
nan nan nan nan nan nan nan 295 294 299 289 286 288 290 292 292 295 298 298 299 300 298 nan nan nan nan nan nan nan nan nan nan nan nan nan nan nan nan nan nan nan nan nan nan
nan nan 279 nan nan nan nan 288 292 295 292 290 285 286 287 293 294 295 nan nan nan nan nan nan nan nan nan nan nan nan nan nan nan nan nan nan nan nan nan nan nan nan nan nan
nan nan nan nan nan nan nan nan nan 289 286 284 283 nan nan nan nan nan nan nan nan nan nan nan nan nan nan nan nan nan nan nan nan nan nan nan nan nan nan nan nan nan nan nan
nan nan nan nan nan nan nan nan nan nan nan nan nan nan nan nan nan nan nan nan nan nan nan nan nan nan nan nan nan nan nan nan nan nan nan nan nan nan nan nan nan nan nan nan